Regional Weather Roundup
Issued by NWS State College, PA

Home | Current Version | Previous Version | Graphics & Text | Print | Product List | Glossary On
Versions: 1 2 3 4 5 6 7 8 9 10 11 12 13 14 15 16 17 18 19 20 21 22 23 24 25 26 27 28 29 30 31 32 33 34 35 36 37 38 39 40 41 42 43 44 45 46 47 48 49 50
000
ASUS41 KCTP 042110
RWRCTP

REGIONAL WEATHER ROUNDUP
NATIONAL WEATHER SERVICE STATE COLLEGE PA
400 PM EST WED MAR 04 2015

Note: "fair" indicates few or no clouds below 12,000 feet with no
significant weather and/or obstructions to visibility.

* = STATION THAT DOES NOT REPORT PRECIPITATION /E.G. RAIN...SNOW...ETC/
    THUNDER OR FOG.

PAZ002>004-007>009-013>016-020>023-029>032-042200-
WESTERN PENNSYLVANIA

CITY           SKY/WX    TMP DP  RH WIND       PRES   REMARKS
ERIE           CLOUDY    32  23  69 W12       29.93R
MEADVILLE      CLOUDY    32  22  66 W9        29.89S
FRANKLIN*      CLOUDY    32  25  74 NW5       29.89F
NEW CASTLE     MOCLDY    34  28  79 W5        29.92F
BEAVER COUNTY  CLOUDY    34  30  86 W6        29.91R
BUTLER*        CLOUDY    36  28  75 W10G16    29.93R
PITTSBURGH INT LGT SNOW  34  32  92 W5        29.91R FOG
PITTSBURGH     LGT SNOW  33  30  88 W3        29.91R
INDIANA*       FOG       34  34 100 W6        29.94R VSB 3/4
LATROBE        NOT AVBL
WASHINGTON CO* CLOUDY    34  32  93 CALM      29.94S
$$

PAZ004>006-010>012-017>019-024>028-033>037-041-042-045-046-049>053-042200-
CENTRAL PENNSYLVANIA

CITY           SKY/WX    TMP DP  RH WIND       PRES   REMARKS
BRADFORD       CLOUDY    32  24  72 W9        29.82S
DUBOIS         CLOUDY    33  30  88 W9        29.85S FOG
CLEARFIELD     CLOUDY    35  30  82 W8        29.87R
JOHNSTOWN      MIX PCPN  32  31  96 W14       29.84R
ALTOONA        CLOUDY    37  33  85 SW5       29.89R
STATE COLLEGE  CLOUDY    36  32  87 W7        29.88R
WILLIAMSPORT   CLOUDY    37  32  82 CALM      29.87S HAZE
SELINSGROVE    CLOUDY    42  34  73 W6        29.88F
FT INDIANTOWN  CLOUDY    40  38  90 SW3       29.87S FOG
CAPITAL CITY   CLOUDY    42  40  92 CALM      29.89R
HARRISBURG     CLOUDY    40  39  97 CALM      29.89R FOG
YORK           LGT RAIN  41  40  96 NE7       29.88R FOG
$$

PAZ038>040-043-044-047-048-054-055-060>062-067>071-042200-
EASTERN PENNSYLVANIA

CITY           SKY/WX    TMP DP  RH WIND       PRES   REMARKS
SCRANTON       CLOUDY    40  32  73 SW8       29.84S
MOUNT POCONO   CLOUDY    37  30  75 W16G23    29.81R
ALLENTOWN      CLOUDY    41  36  82 SW6       29.86F HAZE
QUAKERTOWN*    CLOUDY    41  39  93 CALM      29.87F
READING        FOG       40  38  93 S5        29.88R VSB 1/4
LANCASTER      FOG       37  37 100 CALM      29.89R VSB 1/2
COATESVILLE    LGT RAIN  41  41 100 CALM      29.88F VSB 1/2
POTTSTOWN      LGT RAIN  41  41 100 CALM      29.90F FOG
BLUE BELL      CLOUDY    43  41  93 CALM      29.88F VSB 1
DOYLESTOWN     LGT RAIN  40  40 100 SW5       29.88R FOG
WILLOW GROVE   NOT AVBL
NORTH PHILA    LGT RAIN  45  40  82 CALM      29.90F
PHILADELPHIA   LGT RAIN  42  40  92 S6        29.90F FOG
$$


USA.gov is the U.S. government's official web portal to all federal, state and local government web resources and services.